Regional Weather Roundup
Issued by NWS Green Bay, WI

Home | Current Version | Previous Version | Text Only | Print | Product List | Glossary On
Versions: 1 2 3 4 5 6 7 8 9 10 11 12 13 14 15 16 17 18 19 20 21 22 23 24 25 26 27 28 29 30 31 32 33 34 35 36 37 38 39 40 41 42 43 44 45 46 47 48 49 50
000
ASUS43 KGRB 310911
RWRGRB

NORTH-CENTRAL AND NORTHEAST WISCONSIN REGIONAL WEATHER ROUNDUP
NATIONAL WEATHER SERVICE GREEN BAY WI
400 AM CDT MON AUG 31 2015

WIZ005-009-010>012-018-019-311000-
NORTH CENTRAL WISCONSIN

CITY           SKY/WX    TMP DP  RH WIND       PRES   REMARKS
IRONWOOD       CLEAR     64  63  94 S9        29.92S
MANITOWISH WTR CLOUDY    64  64 100 SW7       29.99S
ARBOR VITAE    CLOUDY    64  63  96 SW3       30.00S
EAGLE RIVER    CLOUDY    64  62  96 W8        30.00S
LAND O LAKES   CLOUDY    64  63  95 SW6       30.00S
RHINELANDER    CLOUDY    64  62  93 W6        30.02S FOG
PHILLIPS       CLOUDY    63  63 100 SW6       29.99S FOG
ANTIGO         FOG       61  61 100 W8        30.02S VSB 1/2
TOMAHAWK       NOT AVBL
MERRILL        CLOUDY    63  63 100 W3        30.02S FOG
$$

WIZ013-073-311000-
NORTHEAST WISCONSIN

CITY           SKY/WX    TMP DP  RH WIND       PRES   REMARKS
IRON MOUNTAIN  CLEAR     64  61  90 CALM      29.96S
MARINETTE      CLEAR     63  61  94 W5        29.97S
OCONTO         CLEAR     60  60 100 SW3       29.99S
$$

WIZ017-030-035>037-045-311000-
CENTRAL WISCONSIN

CITY           SKY/WX    TMP DP  RH WIND       PRES   REMARKS
MEDFORD        FOG       61  61 100 SW5       30.01F VSB 1/4
WAUSAU         CLOUDY    63  62  97 CALM      30.00S FOG
MOSINEE        FOG       61  61 100 SW3       30.03S VSB 1/4
MARSHFIELD     FOG       61  59  93 SW3       30.02R VSB<1/4
WISC RAPIDS    FOG       59  57  93 SW3       30.03S VSB 1/4
STEVENS POINT  FOG       60  60 100 CALM      30.02S VSB 1/2
WAUPACA        FOG       59  58  97 CALM      30.02S VSB 1/4
SHAWANO        CLEAR     63  62  96 CALM      30.00S FOG
CLINTONVILLE     N/A     59  59 100 CALM      30.01S FOG
WAUTOMA        FOG       59  59 100 CALM      30.03R VSB<1/4
$$

WIZ038-039-048-051-311000-
FOX VALLEY

CITY           SKY/WX    TMP DP  RH WIND       PRES   REMARKS
NWS GREEN BAY  CLEAR     62  61  96 SW5       30.02R FOG
APPLETON       MOCLDY    61  61 100 SW5       30.01S FOG
OSHKOSH        CLEAR     59  57  93 S3        30.02R FOG
FOND DU LAC    FOG       60  59  96 CALM      30.03R VSB 3/4
$$

WIZ022-050-052-311000-
EAST CENTRAL WISCONSIN

CITY           SKY/WX    TMP DP  RH WIND       PRES   REMARKS
EPHRAIM        FAIR      64  63  97 W8        29.98R
STURGEON BAY   CLEAR     64  61  88 W8        30.01S
MANITOWOC      FOG       59  58  96 MISG      30.01F VSB 3/4
SHEBOYGAN      CLEAR     58  57  97 S3        30.03R FOG
$$

LMZ563-521-522-541>543-311000-
LAKESHORE

STATION/POSITION TIME  TEMP    WIND        PRES    VSBY  WAVE
                       AIR SEA DIR/SP/G                  HT/PER
                 (UTC) (F)     (DEG/KT/KT) (MB)    (MI)  (FT/S)
SHEBOYGAN LKSHOR 0900   60     210/  5/  5 1016.9R
NORTHPORT PIER   0802   63     250/  3/  6 1014.6S
N MID LAKE BUOY  0850   64 65  220/ 12/ 14 1014.5R         3/ 5
CHAMBERS ISLAND  0800   64     190/  6/ 10 1014.9S
$$



USA.gov is the U.S. government's official web portal to all federal, state and local government web resources and services.